APSTAR-9

Last updated on Mon Sep 07 2026 00:02:59 GMT+0000 (Coordinated Universal Time)

1 40982U 15059A 26249.61990178 -.00000282 00000+0 00000+0 0 9998 2 40982 0.0197 18.4549 0002460 160.2001 172.2374 1.00272644 39920
UTC large
Height (km)
Speed (km/s)
/
Latitude / Longitude
Inclination (degrees)
Orbital Period (minutes)
Azimuth
Elevation
Range (km)
Doppler Factor

Next 0 passes for location: London (51.5072 / 0.1276)

No passes found over London.
APSTAR-9